Location: Unspecified
(0.0000°N, 0.0000°E)
Time: 22:40:45
(UTC+00:00)

Vela 2A - Pass Details

Date: 16 September 2024
Orbit: 51020 x 155464 km, 49.4° (Epoch: 10 October)

Event Time Altitude Azimuth Distance (km) Brightness Sun altitude
Rises 07:41:58 0° 43° (NE) 124,745 ? 26.8°
Reaches altitude 10° 08:58:49 10° 41° (NE) 127,068 ? 46.0°
Maximum altitude 14:53:53 39° 0° (N) 137,846 ? 45.1°
Drops below altitude 10° 20:38:43 10° 320° (NW) 150,397 ? -41.0°
Sets 21:51:51 0° 318° (NW) 153,144 ? -59.3°
